Hof, Germany

5:05 PM CET on February 14, 2016 (GMT +0100)
Hof-Plauen

Weather History for EDQM - August, 2013

Change the Weather History Date:

Thursday, August 15, 2013

  Actual Average Record
Temperature  
Mean Temperature 55 °F -  
Max Temperature 69 °F 70 °F 89 °F (2001)
Min Temperature 41 °F 53 °F 41 °F (2013)
Degree Days  
Heating Degree Days 10    
Growing Degree Days 5 (Base 50)    
Moisture  
Dew Point 41 °F    
Average Humidity 59    
Maximum Humidity 89    
Minimum Humidity 24    
Precipitation  
Precipitation 0.00 in - - ()
Sea Level Pressure  
Sea Level Pressure 30.25 in    
Wind  
Wind Speed 2 mph ()    
Max Wind Speed 7 mph    
Max Gust Speed -    
Visibility 8.6 miles    
Events      
Averages and records for this station are not official NWS values.
T = Trace of Precipitation, MM = Missing Value Source: Averaged Metar Reports

Daily Weather History Graph

Daily Weather History Graph

Search for Another Location

Airport or City:

Trip Planner

Search our weather history database for the weather conditions in past years. The results will help you decide how hot, cold, wet, or windy it might be!

Date:

Astronomy

Aug. 15, 2013 Rise Set
Actual Time 6:01 AM CEST 8:31 PM CEST
Civil Twilight 5:24 AM CEST 9:07 PM CEST
Nautical Twilight 4:38 AM CEST 9:53 PM CEST
Astronomical Twilight 3:44 AM CEST 10:47 PM CEST
Moon 3:41 PM CEST (8/15) No Moon Set
Length of Visible Light 15h 42m
Length of Day
14h 30m
First Quarter, 61% of the Moon is Illuminated
Aug 15
First Quarter
Aug 21
Full
Aug 28
Last Quarter
Sep 5
New
Sep 12
First Quarter

Hourly Weather History & Observations

Time (CEST) Temp. Windchill Dew Point Humidity Pressure Visibility Wind Dir Wind Speed Gust Speed Precip Events Conditions
12:00 AM 49 °F - 40 °F 62% 30.27 in 31 mi WSW 4.5 mph - -  
12:20 AM 46.4 °F - 41.0 °F 81% 30.27 in 6.2 mi WSW 2.3 mph - N/A   Unknown
12:50 AM 46.4 °F - 41.0 °F 81% 30.27 in 6.2 mi Variable 2.3 mph - N/A   Unknown
1:00 AM 46 °F - 41 °F 78% 30.28 in 25 mi Calm Calm - -  
1:20 AM 46.4 °F - 41.0 °F 81% 30.27 in 6.2 mi SW 1.2 mph - N/A   Unknown
1:50 AM 44.6 °F - 39.2 °F 81% 30.27 in 6.2 mi Calm Calm - N/A   Partly Cloudy
2:00 AM 46 °F - 42 °F 81% 30.27 in 19 mi SSE 2.2 mph - -  
2:20 AM 44.6 °F - 39.2 °F 81% 30.27 in 6.2 mi Calm Calm - N/A   Unknown
2:50 AM 44.6 °F - 39.2 °F 81% 30.24 in 6.2 mi Variable 1.2 mph - N/A   Unknown
3:00 AM 44 °F - 41 °F 87% 30.28 in 17 mi SSE 2.2 mph - -  
3:20 AM 42.8 °F - 37.4 °F 81% 30.27 in 6.2 mi SSW 1.2 mph - N/A   Unknown
3:50 AM 44.6 °F - 39.2 °F 81% 30.27 in 6.2 mi South 1.2 mph - N/A   Unknown
4:00 AM 44 °F - 42 °F 89% 30.28 in 14 mi SSE 4.5 mph - -  
4:20 AM 42.8 °F - 39.2 °F 87% 30.27 in 6.2 mi Calm Calm - N/A   Unknown
4:50 AM 42.8 °F - 39.2 °F 87% 30.27 in 6.2 mi South 1.2 mph - N/A   Unknown
5:20 AM 41.0 °F - 37.4 °F 87% 30.27 in 6.2 mi Calm Calm - N/A   Unknown
5:50 AM 41.0 °F - 37.4 °F 87% 30.27 in 6.2 mi SW 2.3 mph - N/A   Unknown
6:00 AM 42 °F - 40 °F 88% 30.30 in 16 mi WNW 2.2 mph - -   Clear
6:20 AM 42.8 °F - 39.2 °F 87% 30.27 in 6.2 mi Calm Calm - N/A   Unknown
6:50 AM 42.8 °F 41.1 °F 39.2 °F 87% 30.27 in - South 3.5 mph - N/A   Clear
7:20 AM 46.4 °F - 41.0 °F 81% 30.27 in - SSW 1.2 mph - N/A   Clear
7:50 AM 50.0 °F - 41.0 °F 71% 30.27 in - Variable 1.2 mph - N/A   Clear
8:00 AM 49 °F - 44 °F 77% 30.28 in 16 mi SE 2.2 mph - -   Clear
8:20 AM 53.6 °F - 44.6 °F 72% 30.27 in - Variable 1.2 mph - N/A   Clear
8:50 AM 57.2 °F - 42.8 °F 59% 30.27 in - SSE 3.5 mph - N/A   Clear
9:00 AM 53 °F - 47 °F 73% 30.26 in 19 mi SE 2.2 mph - -   Clear
9:20 AM 60.8 °F - 44.6 °F 55% 30.27 in - South 4.6 mph - N/A   Clear
9:50 AM 62.6 °F - 42.8 °F 48% 30.27 in - South 6.9 mph - N/A   Clear
10:00 AM 61 °F - 46 °F 46% 30.23 in 25 mi South 6.7 mph - -   Clear
10:20 AM 64.4 °F - 41.0 °F 42% 30.27 in - South 5.8 mph - N/A   Clear
10:50 AM 66.2 °F - 41.0 °F 40% 30.27 in - South 5.8 mph - N/A   Clear
11:20 AM 66.2 °F - 39.2 °F 37% 30.27 in - WSW 5.8 mph - N/A   Clear
11:50 AM 68.0 °F - 39.2 °F 35% 30.27 in - South 6.9 mph - N/A   Clear
12:00 PM 64 °F - 42 °F 33% 30.22 in 28 mi West 4.5 mph - -   Partly Cloudy
12:20 PM 68.0 °F - 39.2 °F 35% 30.27 in - Variable 4.6 mph - N/A   Clear
12:50 PM 66.2 °F - 37.4 °F 35% 30.27 in - Variable 4.6 mph - N/A   Clear
1:00 PM 63 °F - 41 °F 33% 30.21 in 31 mi WNW 2.2 mph - -   Mostly Cloudy
1:20 PM 64.4 °F - 39.2 °F 40% 30.27 in - SSW 4.6 mph - N/A   Clear
1:50 PM 64.4 °F - 35.6 °F 34% 30.24 in - WNW 3.5 mph - N/A   Clear
2:00 PM 65 °F - 41 °F 30% 30.18 in 34 mi WSW 4.5 mph - -   Partly Cloudy
2:20 PM 66.2 °F - 37.4 °F 35% 30.24 in - ENE 4.6 mph - N/A   Clear
2:50 PM 66.2 °F - 39.2 °F 37% 30.24 in - Variable 2.3 mph - N/A   Clear
3:20 PM 66.2 °F - 37.4 °F 35% 30.24 in - Variable 3.5 mph - N/A   Clear
3:50 PM 68.0 °F - 35.6 °F 30% 30.24 in - SW 6.9 mph - N/A   Clear
4:00 PM 69 °F - 42 °F 26% 30.15 in 44 mi SW 4.5 mph - -   Mostly Cloudy
4:20 PM 68.0 °F - 37.4 °F 33% 30.21 in - West 5.8 mph - N/A   Clear
4:50 PM 69.8 °F - 37.4 °F 31% 30.21 in - SSW 4.6 mph - N/A   Clear
5:20 PM 68.0 °F - 37.4 °F 33% 30.21 in - SW 3.5 mph - N/A   Clear
5:50 PM 68.0 °F - 39.2 °F 35% 30.21 in - SSW 3.5 mph - N/A   Clear
6:00 PM 68 °F - 39 °F 24% 30.15 in 44 mi South 2.2 mph - -   Partly Cloudy
6:20 PM 68.0 °F - 37.4 °F 33% 30.21 in - West 3.5 mph - N/A   Clear
6:50 PM 66.2 °F - 39.2 °F 37% 30.21 in - Variable 2.3 mph - N/A   Clear
7:00 PM 67 °F - 42 °F 29% 30.14 in 44 mi SW 4.5 mph - -   Overcast
7:20 PM 64.4 °F - 42.8 °F 45% 30.21 in - WSW 2.3 mph - N/A   Clear
8:20 PM 59.0 °F - 46.4 °F 63% 30.21 in 6.2 mi WSW 2.3 mph - N/A   Unknown
8:50 PM 55.4 °F - 46.4 °F 72% 30.21 in 6.2 mi Calm Calm - N/A   Unknown
9:20 PM 55.4 °F - 44.6 °F 67% 30.21 in 6.2 mi Calm Calm - N/A   Unknown
9:50 PM 57.2 °F - 44.6 °F 63% 30.24 in 6.2 mi Calm Calm - N/A   Unknown
10:20 PM 53.6 °F - 42.8 °F 67% 30.24 in 6.2 mi South 1.2 mph - N/A   Partly Cloudy
10:50 PM 51.8 °F - 44.6 °F 76% 30.24 in 6.2 mi Calm Calm - N/A   Unknown
11:20 PM 51.8 °F - 42.8 °F 71% 30.24 in 6.2 mi Calm Calm - N/A   Unknown
11:50 PM 51.8 °F - 42.8 °F 71% 30.24 in 6.2 mi Calm Calm - N/A   Unknown